| time (UTC) | temp F | wind direction | speed knots | gust knots | rain 1hr in | rain 24hr in | rain mn in | humidity % | barometer mb |
| 20260505065507 | 44 | 255 | 2.6 | 7.8 | 0.00 | 0.03 | 0.00 | 35 | 1015.3 |
| 20260505065009 | 44 | 254 | 3.5 | 7.8 | 0.00 | 0.03 | 0.00 | 35 | 1015.3 |
| 20260505064525 | 44 | 257 | 4.3 | 7.8 | 0.00 | 0.03 | 0.00 | 35 | 1015.3 |
| 20260505064003 | 44 | 256 | 2.6 | 6.1 | 0.00 | 0.03 | 0.00 | 34 | 1015.2 |
| 20260505063503 | 44 | 294 | 2.6 | 6.1 | 0.00 | 0.03 | 0.00 | 35 | 1015.3 |
| 20260505063013 | 44 | 280 | 2.6 | 5.2 | 0.00 | 0.03 | 0.00 | 35 | 1015.4 |
| 20260505062503 | 45 | 276 | 2.6 | 7.0 | 0.00 | 0.03 | 0.00 | 35 | 1015.3 |
| 20260505062004 | 45 | 294 | 3.5 | 7.0 | 0.00 | 0.03 | 0.00 | 35 | 1015.4 |
| 20260505061511 | 45 | 274 | 4.3 | 6.1 | 0.00 | 0.03 | 0.00 | 35 | 1015.3 |
| 20260505061003 | 45 | 274 | 1.7 | 3.5 | 0.00 | 0.03 | 0.00 | 36 | 1015.3 |
| 20260505060506 | 45 | 318 | 1.7 | 4.3 | 0.00 | 0.03 | 0.00 | 36 | 1015.4 |
| 20260505060014 | 45 | 307 | 2.6 | 4.3 | 0.00 | 0.03 | 0.00 | 35 | 1015.5 |
| 20260505055504 | 45 | 309 | 1.7 | 9.6 | 0.00 | 0.03 | 0.03 | 33 | 1015.5 |
| 20260505055007 | 45 | 261 | 3.5 | 9.6 | 0.00 | 0.03 | 0.03 | 33 | 1015.5 |
| 20260505054527 | 45 | 233 | 2.6 | 7.0 | 0.00 | 0.03 | 0.03 | 33 | 1015.5 |
| 20260505054011 | 45 | 221 | 3.5 | 7.0 | 0.00 | 0.03 | 0.03 | 33 | 1015.5 |
| 20260505053510 | 46 | 205 | 2.6 | 7.0 | 0.00 | 0.03 | 0.03 | 34 | 1015.5 |
| 20260505053003 | 45 | 263 | 3.5 | 9.6 | 0.00 | 0.03 | 0.03 | 34 | 1015.6 |
| 20260505052505 | 45 | 225 | 5.2 | 9.6 | 0.00 | 0.03 | 0.03 | 35 | 1015.6 |
| 20260505052004 | 45 | 223 | 3.5 | 9.6 | 0.00 | 0.03 | 0.03 | 38 | 1015.6 |
| 20260505051509 | 45 | 252 | 2.6 | 4.3 | 0.00 | 0.03 | 0.03 | 39 | 1015.5 |
| 20260505051006 | 45 | 267 | 0.9 | 4.3 | 0.00 | 0.03 | 0.03 | 39 | 1015.5 |
| 20260505050505 | 45 | 348 | 0.0 | 0.9 | 0.00 | 0.03 | 0.03 | 39 | 1015.5 |
| 20260505041511 | 45 | 316 | 0.0 | 2.6 | 0.00 | 0.03 | 0.03 | 40 | 1015.5 |
| 20260505041004 | 45 | 318 | 0.9 | 2.6 | 0.00 | 0.03 | 0.03 | 38 | 1015.5 |
| 20260505040504 | 46 | 338 | 0.0 | 2.6 | 0.00 | 0.03 | 0.03 | 39 | 1015.5 |
| 20260505040008 | 46 | 347 | 0.9 | 3.5 | 0.00 | 0.03 | 0.03 | 39 | 1015.5 |
| 20260505035505 | 46 | 346 | 1.7 | 3.5 | 0.00 | 0.03 | 0.03 | 39 | 1015.5 |
| 20260505035003 | 46 | 328 | 0.9 | 3.5 | 0.00 | 0.03 | 0.03 | 39 | 1015.4 |
| 20260505034511 | 46 | 360 | 1.7 | 4.3 | 0.00 | 0.03 | 0.03 | 39 | 1015.2 |
| 20260505034003 | 46 | 333 | 1.7 | 4.3 | 0.00 | 0.03 | 0.03 | 39 | 1015.2 |
| 20260505033504 | 46 | 351 | 1.7 | 3.5 | 0.00 | 0.03 | 0.03 | 39 | 1015.2 |
| 20260505033020 | 46 | 302 | 2.6 | 4.3 | 0.00 | 0.03 | 0.03 | 38 | 1015.3 |
| 20260505032507 | 46 | 327 | 1.7 | 4.3 | 0.00 | 0.03 | 0.03 | 38 | 1015.2 |
| 20260505032011 | 46 | 322 | 1.7 | 4.3 | 0.00 | 0.03 | 0.03 | 38 | 1015.1 |
| 20260505031521 | 46 | 344 | 2.6 | 4.3 | 0.00 | 0.03 | 0.03 | 38 | 1015.0 |
| 20260505031014 | 46 | 331 | 0.9 | 2.6 | 0.00 | 0.03 | 0.03 | 38 | 1015.0 |
| 20260505030511 | 46 | 301 | 1.7 | 2.6 | 0.00 | 0.03 | 0.03 | 38 | 1015.1 |
| 20260505030021 | 46 | 309 | 0.9 | 3.5 | 0.00 | 0.03 | 0.03 | 38 | 1015.0 |
| 20260505025507 | 46 | 319 | 0.9 | 3.5 | 0.00 | 0.03 | 0.03 | 38 | 1015.0 |
| 20260505025004 | 46 | 302 | 1.7 | 4.3 | 0.00 | 0.03 | 0.03 | 37 | 1015.1 |
| 20260505024512 | 46 | 325 | 1.7 | 4.3 | 0.00 | 0.03 | 0.03 | 37 | 1015.1 |
| 20260505024002 | 46 | 352 | 1.7 | 3.5 | 0.00 | 0.03 | 0.03 | 37 | 1015.0 |
| 20260505023505 | 46 | 332 | 0.0 | 1.7 | 0.00 | 0.03 | 0.03 | 37 | 1015.1 |
| 20260505023019 | 46 | 342 | 1.7 | 1.7 | 0.00 | 0.03 | 0.03 | 38 | 1015.2 |
| 20260505022504 | 47 | 331 | 0.9 | 1.7 | 0.00 | 0.03 | 0.03 | 37 | 1015.2 |
| 20260505022008 | 47 | 296 | 0.9 | 1.7 | 0.00 | 0.03 | 0.03 | 36 | 1015.2 |
| 20260505021520 | 48 | 290 | 0.0 | 1.7 | 0.00 | 0.03 | 0.03 | 35 | 1015.2 |
| 20260505021006 | 48 | 290 | 0.0 | 1.7 | 0.00 | 0.03 | 0.03 | 35 | 1015.0 |
| 20260505020506 | 49 | 285 | 0.0 | 1.7 | 0.00 | 0.03 | 0.03 | 33 | 1015.2 |
| 20260505020024 | 49 | 285 | 0.0 | 0.0 | 0.00 | 0.03 | 0.03 | 33 | 1015.2 |
| 20260505015510 | 49 | 285 | 0.0 | 1.7 | 0.00 | 0.03 | 0.03 | 33 | 1014.9 |
| 20260505015017 | 49 | 285 | 0.0 | 3.5 | 0.00 | 0.03 | 0.03 | 33 | 1014.8 |
| 20260505014508 | 50 | 285 | 0.0 | 3.5 | 0.00 | 0.03 | 0.03 | 32 | 1015.0 |
| 20260505014005 | 50 | 265 | 0.9 | 5.2 | 0.00 | 0.03 | 0.03 | 32 | 1015.2 |
| 20260505013505 | 50 | 269 | 2.6 | 5.2 | 0.00 | 0.03 | 0.03 | 32 | 1015.1 |
| 20260505013012 | 50 | 275 | 2.6 | 6.1 | 0.00 | 0.03 | 0.03 | 32 | 1015.1 |
| 20260505012506 | 50 | 261 | 1.7 | 7.8 | 0.00 | 0.03 | 0.03 | 32 | 1015.1 |
| 20260505012004 | 51 | 279 | 2.6 | 8.7 | 0.00 | 0.03 | 0.03 | 32 | 1015.1 |
| 20260505011517 | 51 | 267 | 4.3 | 8.7 | 0.00 | 0.03 | 0.03 | 31 | 1015.0 |
| 20260505011008 | 51 | 277 | 2.6 | 9.6 | 0.00 | 0.03 | 0.03 | 31 | 1015.0 |
| 20260505010507 | 51 | 263 | 7.0 | 9.6 | 0.00 | 0.03 | 0.03 | 30 | 1015.2 |
| 20260505010023 | 51 | 309 | 2.6 | 8.7 | 0.00 | 0.03 | 0.03 | 30 | 1015.2 |
| 20260505005506 | 51 | 268 | 2.6 | 7.8 | 0.00 | 0.03 | 0.03 | 30 | 1015.2 |
| 20260505005008 | 52 | 287 | 2.6 | 8.7 | 0.00 | 0.03 | 0.03 | 30 | 1015.1 |
| 20260505004525 | 52 | 264 | 4.3 | 9.6 | 0.00 | 0.03 | 0.03 | 29 | 1015.1 |
| 20260505004010 | 52 | 284 | 3.5 | 9.6 | 0.00 | 0.03 | 0.03 | 29 | 1015.1 |
| 20260505003514 | 52 | 257 | 3.5 | 9.6 | 0.00 | 0.03 | 0.03 | 29 | 1015.1 |
| 20260505003011 | 52 | 309 | 4.3 | 11.3 | 0.00 | 0.03 | 0.03 | 29 | 1015.2 |
| 20260505002504 | 52 | 259 | 5.2 | 11.3 | 0.00 | 0.03 | 0.03 | 29 | 1015.4 |
| 20260505002006 | 52 | 268 | 7.0 | 10.4 | 0.00 | 0.03 | 0.03 | 29 | 1015.5 |
| 20260505001514 | 53 | 271 | 4.3 | 10.4 | 0.00 | 0.03 | 0.03 | 29 | 1015.4 |
| 20260505001005 | 53 | 293 | 4.3 | 10.4 | 0.00 | 0.03 | 0.03 | 28 | 1015.4 |
| 20260505000506 | 53 | 301 | 4.3 | 10.4 | 0.00 | 0.03 | 0.03 | 29 | 1015.4 |
| 20260505000020 | 53 | 275 | 3.5 | 11.3 | 0.00 | 0.03 | 0.03 | 28 | 1015.6 |
| 20260504235507 | 53 | 263 | 7.8 | 11.3 | 0.00 | 0.03 | 0.03 | 27 | 1015.6 |
| 20260504235007 | 53 | 295 | 6.1 | 14.8 | 0.00 | 0.03 | 0.03 | 26 | 1015.6 |
| 20260504234525 | 53 | 254 | 7.0 | 14.8 | 0.00 | 0.03 | 0.03 | 26 | 1015.6 |
| 20260504234008 | 53 | 272 | 6.1 | 13.0 | 0.00 | 0.03 | 0.03 | 26 | 1015.8 |
| 20260504233506 | 53 | 278 | 6.1 | 15.6 | 0.00 | 0.03 | 0.03 | 28 | 1015.7 |
| 20260504233028 | 53 | 279 | 7.0 | 15.6 | 0.00 | 0.03 | 0.03 | 28 | 1015.7 |
| 20260504232510 | 53 | 275 | 7.0 | 15.6 | 0.00 | 0.03 | 0.03 | 29 | 1015.8 |
| 20260504232003 | 53 | 222 | 9.6 | 15.6 | 0.00 | 0.03 | 0.03 | 30 | 1015.9 |
| 20260504231513 | 53 | 284 | 5.2 | 13.9 | 0.00 | 0.03 | 0.03 | 31 | 1015.8 |
| 20260504231004 | 53 | 261 | 8.7 | 12.2 | 0.00 | 0.03 | 0.03 | 31 | 1015.9 |
| 20260504230504 | 54 | 267 | 7.8 | 13.9 | 0.00 | 0.03 | 0.03 | 31 | 1016.0 |
| 20260504230018 | 53 | 281 | 7.0 | 13.9 | 0.00 | 0.03 | 0.03 | 30 | 1015.9 |
| 20260504225509 | 53 | 258 | 6.1 | 10.4 | 0.00 | 0.03 | 0.03 | 31 | 1016.0 |
| 20260504225010 | 53 | 238 | 7.8 | 14.8 | 0.00 | 0.03 | 0.03 | 30 | 1016.0 |
| 20260504224523 | 53 | 272 | 7.8 | 14.8 | 0.00 | 0.03 | 0.03 | 29 | 1016.0 |
| 20260504224007 | 53 | 275 | 7.0 | 14.8 | 0.00 | 0.03 | 0.03 | 28 | 1016.0 |
| 20260504223508 | 53 | 252 | 7.0 | 11.3 | 0.00 | 0.03 | 0.03 | 30 | 1015.8 |
| 20260504223026 | 54 | 298 | 3.5 | 9.6 | 0.00 | 0.03 | 0.03 | 30 | 1015.8 |
| 20260504222507 | 54 | 332 | 5.2 | 10.4 | 0.00 | 0.03 | 0.03 | 30 | 1015.8 |
| 20260504222014 | 54 | 298 | 4.3 | 10.4 | 0.00 | 0.03 | 0.03 | 32 | 1015.8 |
| 20260504221528 | 54 | 238 | 6.1 | 13.0 | 0.00 | 0.03 | 0.03 | 31 | 1016.0 |
| 20260504221011 | 54 | 250 | 8.7 | 13.0 | 0.00 | 0.03 | 0.03 | 29 | 1016.2 |
| 20260504220504 | 54 | 274 | 5.2 | 13.0 | 0.00 | 0.03 | 0.03 | 29 | 1016.0 |
| 20260504220021 | 54 | 257 | 7.0 | 13.9 | 0.00 | 0.03 | 0.03 | 29 | 1015.9 |
| 20260504215504 | 54 | 330 | 7.0 | 13.9 | 0.00 | 0.03 | 0.03 | 31 | 1016.1 |
| 20260504215006 | 54 | 252 | 5.2 | 13.0 | 0.00 | 0.03 | 0.03 | 31 | 1016.1 |
| 20260504214519 | 54 | 242 | 7.8 | 15.6 | 0.00 | 0.03 | 0.03 | 31 | 1016.1 |
| 20260504214008 | 54 | 254 | 9.6 | 15.6 | 0.00 | 0.03 | 0.03 | 33 | 1016.1 |
| 20260504213510 | 54 | 219 | 8.7 | 14.8 | 0.00 | 0.03 | 0.03 | 33 | 1016.3 |
| 20260504213023 | 54 | 241 | 7.8 | 15.6 | 0.00 | 0.03 | 0.03 | 33 | 1016.4 |
| 20260504212511 | 54 | 284 | 6.1 | 17.4 | 0.00 | 0.03 | 0.03 | 34 | 1016.5 |
| 20260504212002 | 54 | 226 | 10.4 | 17.4 | 0.00 | 0.03 | 0.03 | 32 | 1016.5 |
| 20260504211511 | 54 | 259 | 7.0 | 12.2 | 0.00 | 0.03 | 0.03 | 31 | 1016.4 |
| 20260504211003 | 54 | 311 | 7.0 | 12.2 | 0.00 | 0.03 | 0.03 | 35 | 1016.6 |
| 20260504210505 | 55 | 254 | 6.1 | 13.0 | 0.00 | 0.03 | 0.03 | 35 | 1016.6 |
| 20260504210012 | 55 | 275 | 5.2 | 13.9 | 0.00 | 0.03 | 0.03 | 38 | 1016.6 |
| 20260504205506 | 54 | 239 | 9.6 | 13.9 | 0.00 | 0.03 | 0.03 | 38 | 1016.7 |
| 20260504205007 | 54 | 261 | 5.2 | 13.9 | 0.00 | 0.03 | 0.03 | 39 | 1016.5 |
| 20260504204520 | 54 | 252 | 7.8 | 13.9 | 0.00 | 0.03 | 0.03 | 38 | 1016.7 |
| 20260504204007 | 53 | 258 | 4.3 | 10.4 | 0.00 | 0.03 | 0.03 | 40 | 1016.8 |
| 20260504203508 | 53 | 332 | 7.0 | 15.6 | 0.00 | 0.03 | 0.03 | 41 | 1017.0 |
| 20260504203024 | 53 | 300 | 8.7 | 15.6 | 0.00 | 0.03 | 0.03 | 40 | 1017.0 |
| 20260504202507 | 54 | 271 | 6.1 | 13.0 | 0.00 | 0.03 | 0.03 | 39 | 1017.0 |
| 20260504202011 | 54 | 223 | 7.8 | 13.9 | 0.00 | 0.03 | 0.03 | 39 | 1017.2 |
| 20260504201525 | 53 | 266 | 8.7 | 13.9 | 0.00 | 0.03 | 0.03 | 41 | 1017.2 |
| 20260504201003 | 53 | 234 | 7.0 | 10.4 | 0.00 | 0.03 | 0.03 | 42 | 1017.1 |
| 20260504200504 | 53 | 279 | 4.3 | 10.4 | 0.00 | 0.03 | 0.03 | 44 | 1017.1 |
| 20260504200021 | 53 | 263 | 4.3 | 9.6 | 0.00 | 0.03 | 0.03 | 44 | 1017.1 |
| 20260504195502 | 53 | 252 | 4.3 | 10.4 | 0.00 | 0.03 | 0.03 | 46 | 1017.2 |
| 20260504195008 | 52 | 271 | 4.3 | 10.4 | 0.00 | 0.03 | 0.03 | 44 | 1017.3 |
| 20260504194520 | 52 | 312 | 4.3 | 8.7 | 0.00 | 0.03 | 0.03 | 46 | 1017.3 |
| 20260504194009 | 52 | 239 | 5.2 | 13.9 | 0.00 | 0.03 | 0.03 | 47 | 1017.2 |
| 20260504193506 | 52 | 253 | 7.0 | 13.9 | 0.00 | 0.03 | 0.03 | 46 | 1017.3 |
| 20260504193020 | 52 | 253 | 7.0 | 11.3 | 0.00 | 0.03 | 0.03 | 46 | 1017.2 |
| 20260504192506 | 51 | 323 | 4.3 | 9.6 | 0.00 | 0.03 | 0.03 | 47 | 1017.2 |
| 20260504192010 | 51 | 314 | 5.2 | 9.6 | 0.00 | 0.03 | 0.03 | 45 | 1017.3 |
| 20260504191537 | 52 | 277 | 4.3 | 10.4 | 0.00 | 0.03 | 0.03 | 45 | 1017.3 |
| 20260504191008 | 52 | 273 | 7.0 | 11.3 | 0.00 | 0.03 | 0.03 | 45 | 1017.3 |
| 20260504190507 | 52 | 287 | 4.3 | 11.3 | 0.00 | 0.03 | 0.03 | 46 | 1017.5 |
| 20260504190026 | 52 | 216 | 5.2 | 9.6 | 0.00 | 0.03 | 0.03 | 46 | 1017.6 |
| 20260504185506 | 52 | 262 | 3.5 | 9.6 | 0.00 | 0.03 | 0.03 | 46 | 1017.5 |
| 20260504185004 | 52 | 265 | 2.6 | 9.6 | 0.00 | 0.03 | 0.03 | 46 | 1017.5 |
| 20260504184514 | 52 | 250 | 6.1 | 9.6 | 0.00 | 0.03 | 0.03 | 46 | 1017.6 |
| 20260504184004 | 51 | 200 | 5.2 | 10.4 | 0.00 | 0.03 | 0.03 | 47 | 1017.6 |
| 20260504183507 | 51 | 248 | 4.3 | 10.4 | 0.00 | 0.03 | 0.03 | 47 | 1017.6 |
| 20260504183034 | 51 | 270 | 5.2 | 9.6 | 0.00 | 0.03 | 0.03 | 47 | 1017.6 |
| 20260504182506 | 51 | 248 | 3.5 | 8.7 | 0.00 | 0.03 | 0.03 | 49 | 1017.8 |
| 20260504182010 | 50 | 257 | 4.3 | 8.7 | 0.00 | 0.03 | 0.03 | 48 | 1017.7 |
| 20260504181526 | 50 | 276 | 3.5 | 11.3 | 0.00 | 0.03 | 0.03 | 51 | 1017.8 |
| 20260504181007 | 50 | 263 | 6.1 | 11.3 | 0.00 | 0.03 | 0.03 | 49 | 1017.9 |
| 20260504180515 | 50 | 254 | 6.1 | 8.7 | 0.00 | 0.03 | 0.03 | 51 | 1018.0 |
| 20260504180026 | 50 | 256 | 3.5 | 10.4 | 0.00 | 0.03 | 0.03 | 50 | 1018.1 |
| 20260504175507 | 50 | 262 | 7.0 | 10.4 | 0.00 | 0.03 | 0.03 | 51 | 1018.0 |
| 20260504175009 | 50 | 258 | 5.2 | 10.4 | 0.00 | 0.03 | 0.03 | 51 | 1017.9 |
| 20260504174526 | 50 | 223 | 4.3 | 7.8 | 0.00 | 0.03 | 0.03 | 53 | 1017.9 |
| 20260504174004 | 50 | 212 | 3.5 | 7.8 | 0.00 | 0.03 | 0.03 | 53 | 1017.9 |
| 20260504173503 | 50 | 249 | 3.5 | 7.8 | 0.00 | 0.03 | 0.03 | 54 | 1017.9 |
| 20260504173015 | 50 | 247 | 3.5 | 12.2 | 0.00 | 0.03 | 0.03 | 53 | 1018.0 |
| 20260504172509 | 50 | 271 | 7.8 | 12.2 | 0.00 | 0.03 | 0.03 | 53 | 1018.1 |
| 20260504172009 | 50 | 255 | 4.3 | 7.0 | 0.00 | 0.03 | 0.03 | 54 | 1018.2 |
| 20260504171520 | 50 | 184 | 0.9 | 6.1 | 0.00 | 0.03 | 0.03 | 54 | 1018.1 |
| 20260504171010 | 50 | 244 | 4.3 | 7.8 | 0.00 | 0.03 | 0.03 | 54 | 1018.0 |
| 20260504170515 | 50 | 235 | 3.5 | 7.8 | 0.00 | 0.03 | 0.03 | 54 | 1018.0 |
| 20260504151004 | 47 | 277 | 1.7 | 2.6 | 0.00 | 0.03 | 0.03 | 61 | 1018.5 |
| 20260504150509 | 46 | 192 | 0.9 | 4.3 | 0.00 | 0.03 | 0.03 | 60 | 1018.5 |
| 20260504141015 | 42 | 19 | 0.9 | 1.7 | 0.00 | 0.03 | 0.03 | 82 | 1018.8 |
| 20260504140510 | 41 | 5 | 0.9 | 1.7 | 0.00 | 0.03 | 0.03 | 81 | 1018.7 |
| 20260504130513 | 39 | 61 | 0.9 | 0.9 | 0.00 | 0.03 | 0.03 | 79 | 1018.3 |
| 20260504110503 | 38 | 53 | 0.0 | 0.9 | 0.00 | 0.03 | 0.03 | 80 | 1017.9 |
| 20260504100509 | 39 | 352 | 0.9 | 3.5 | 0.00 | 0.03 | 0.03 | 80 | 1017.9 |
| 20260504082003 | 43 | 279 | 2.6 | 12.2 | 0.00 | 0.00 | 0.00 | 65 | 1018.5 |
| 20260504081523 | 44 | 296 | 5.2 | 11.3 | 0.00 | 0.00 | 0.00 | 65 | 1018.5 |
| 20260504081007 | 44 | 80 | 0.0 | 1.7 | 0.00 | 0.00 | 0.00 | 60 | 1017.7 |
| 20260504080508 | 44 | 80 | 0.0 | 0.9 | 0.00 | 0.00 | 0.00 | 61 | 1017.7 |